Temperature
19 20 20 21 20 20 20 18 18 19 19 19 17 17 17 17 18 18 18 18 18 18 18 18 18 17 17 17 17 17 17 16 16 16 16 16 16 16 16 16 16 16 16 16
19 20 20 20 20 20 19 19 19 19 18 17 16 17 17 17 17 17 17 18 18 18 18 18 18 17 17 17 17 17 16 16 16 16 16 16 16 16 16 16 16 16 15 15
18 19 20 19 18 18 18 18 18 18 18 16 16 16 16 16 17 17 17 17 17 18 18 18 17 17 17 17 17 17 16 16 16 16 16 16 16 16 16 16 15 15 15 15
16 19 19 18 17 18 17 16 16 16 16 16 15 15 16 16 17 17 17 17 17 17 17 17 17 17 17 17 16 16 16 16 16 16 15 15 15 15 15 15 15 15 15 15
15 17 17 18 17 17 17 16 16 15 15 15 15 15 15 16 16 16 16 16 17 17 16 16 16 16 16 16 16 16 16 15 15 15 15 15 15 15 15 15 14 14 14 14
14 17 17 17 17 17 16 16 15 15 14 14 15 15 14 15 16 16 16 16 16 16 16 16 16 16 16 16 15 15 15 15 15 15 15 15 15 14 14 14 14 14 14 14
14 16 16 15 15 16 16 16 14 14 14 14 14 14 14 15 15 15 15 16 16 16 16 16 15 15 15 15 15 15 15 15 15 15 15 14 14 14 14 14 14 13 13 13
13 15 15 14 14 15 14 14 14 14 14 14 14 14 14 14 14 15 15 15 15 15 15 15 15 15 15 15 15 14 15 15 14 14 14 14 14 14 14 13 13 13 13 13
12 13 12 12 12 13 13 13 13 14 14 14 14 13 13 13 14 14 14 14 14 14 14 14 14 14 14 14 14 14 14 14 14 14 14 13 13 13 13 13 13 12 12 12
11 12 11 12 12 13 13 13 14 14 14 14 13 13 13 13 13 13 13 13 13 14 14 13 13 14 14 13 13 14 14 14 13 13 13 13 12 12 12 12 12 12 11 11
11 11 11 12 12 12 13 13 13 13 13 13 13 12 12 12 12 12 12 13 13 13 13 13 13 13 13 13 13 13 13 13 13 13 12 12 12 11 11 11 11 11 11 10
11 11 11 11 11 12 12 12 12 12 12 12 12 12 12 12 12 12 12 12 12 12 12 12 12 12 12 12 12 12 12 12 12 12 12 11 11 11 10 10 10 10 9 9
12 12 11 11 11 11 11 12 12 12 12 11 11 11 11 11 11 11 11 11 11 11 11 11 11 11 11 11 12 12 12 11 11 11 11 11 10 10 10 9 9 9 8 8
12 11 10 10 11 11 11 11 11 11 11 11 11 11 10 10 10 10 10 10 10 11 10 11 11 11 11 11 11 11 11 10 10 10 10 10 10 9 9 9 8 7 7 7
11 12 11 10 10 10 10 10 10 10 10 10 10 10 10 10 10 9 9 10 10 10 10 10 10 10 10 10 10 10 10 10 10 9 9 9 9 8 8 8 7 7 6 6
11 10 10 10 10 10 10 10 9 9 9 9 9 9 9 9 9 9 9 9 9 9 9 9 9 9 9 9 9 9 9 9 9 9 9 8 8 8 7 7 7 6 6 6
10 9 9 9 9 9 9 9 9 9 9 9 9 9 9 9 9 8 8 8 9 8 8 8 8 9 9 9 9 9 9 9 9 8 8 8 7 7 7 6 6 6 5 5
11 11 10 10 9 9 9 9 9 9 9 9 9 9 8 8 8 8 8 8 8 8 8 8 8 8 8 8 8 8 8 8 8 8 7 7 7 6 6 6 6 5 5 5
10 10 10 9 9 9 9 9 9 9 9 9 9 9 8 8 8 8 8 8 8 8 7 8 8 8 8 8 8 8 8 8 7 7 7 6 6 6 6 5 5 5 4 4
10 10 9 9 9 9 9 9 9 9 9 9 9 8 8 8 8 8 8 8 7 7 7 8 8 8 8 8 8 7 7 7 7 7 6 6 6 5 5 5 4 4 4 4
10 9 9 9 9 9 9 9 9 9 9 9 9 8 8 8 8 8 8 7 7 7 7 7 7 7 7 7 7 7 7 6 6 6 6 5 5 5 5 4 4 4 4 3
9 9 9 9 9 9 9 9 9 9 8 8 8 8 8 8 7 7 7 7 7 7 7 7 7 7 7 7 7 6 6 6 6 5 5 5 5 4 4 4 4 3 3 3
9 9 9 9 9 9 9 9 9 9 9 8 8 8 8 8 7 7 7 7 7 7 7 6 6 6 6 6 6 6 6 5 5 5 5 4 4 4 4 3 3 3 3 3
9 9 9 9 9 9 9 8 9 9 8 8 8 8 8 7 7 7 7 6 6 6 6 6 6 6 6 6 5 5 5 5 5 4 4 4 4 3 3 3 3 3 2 2
9 9 9 9 9 9 9 9 8 8 8 8 8 8 7 7 7 7 6 6 6 6 6 5 5 5 5 5 5 5 5 4 4 4 4 4 3 3 3 3 3 2 2 2
9 9 9 9 9 9 9 9 9 8 8 8 8 7 7 7 7 6 6 6 6 5 5 5 5 5 5 5 5 4 4 4 4 4 3 3 3 3 3 2 2 2 2 2
9 9 9 9 9 9 9 9 9 8 8 8 8 7 7 7 6 6 6 6 5 5 5 5 5 4 4 4 4 4 4 4 3 3 3 3 3 3 3 2 2 2 2 2
Wind_Speed
2 3 5 4 4 5 5 7 8 7 6 4 2 3 2 2 2 3 3 3 3 3 3 3 3 3 3 4 4 5 5 5 5 5 5 5 5 5 5 5 6 6 5 5
3 3 5 4 2 4 3 4 4 4 3 2 0 2 2 3 4 3 2 2 2 2 3 3 3 3 4 4 4 5 6 5 5 6 6 6 5 5 5 4 4 4 4 4
2 0 5 2 1 2 3 2 4 5 4 2 2 3 2 2 2 2 2 2 2 2 2 2 2 3 3 3 4 5 5 5 5 6 6 5 5 5 5 5 5 5 5 5
4 4 3 3 2 3 5 3 2 2 2 3 3 2 2 2 3 2 2 2 2 2 2 1 2 3 3 4 4 5 5 5 5 6 6 5 6 5 5 6 5 5 5 5
4 4 1 2 0 2 3 1 2 3 4 3 4 4 4 4 3 2 2 2 2 2 2 2 3 4 5 5 5 5 5 5 5 6 6 7 7 6 6 6 6 6 6 6
5 5 7 6 1 1 4 0 0 3 4 3 3 2 1 2 4 4 3 3 4 4 5 4 3 4 5 5 5 4 4 5 5 6 7 7 7 6 6 7 7 7 7 7
5 4 4 2 3 1 5 6 1 2 3 3 2 3 3 3 4 4 4 5 6 6 5 3 3 5 6 5 4 3 4 6 6 6 7 7 7 7 7 8 9 8 8 8
5 4 6 2 2 4 4 0 1 2 2 2 3 5 5 4 4 5 6 6 6 7 6 4 4 6 7 5 3 5 6 7 7 7 6 7 8 8 8 9 9 8 8 8
5 4 1 1 0 1 1 1 1 1 2 5 5 5 4 4 5 6 6 6 6 7 8 7 6 6 7 4 5 7 8 7 7 8 7 7 8 8 8 7 7 7 7 7
2 1 0 1 2 2 2 0 1 1 3 5 5 5 6 6 5 6 6 7 7 9 9 8 8 8 6 6 7 9 9 8 9 10 10 10 8 7 7 7 7 7 7 7
1 1 1 1 2 2 2 2 3 4 3 5 7 7 7 7 7 6 7 7 8 9 9 9 9 9 8 7 9 11 11 10 10 10 11 12 11 9 9 7 6 8 7 6
5 5 4 2 1 2 3 3 4 5 6 6 7 9 9 8 7 8 8 8 9 10 10 10 10 10 8 8 9 11 10 9 9 9 9 10 12 13 18 15 17 16 12 10
3 3 4 3 3 4 4 4 6 7 8 9 8 10 11 10 9 9 10 10 10 10 10 10 10 10 8 7 9 11 11 9 9 9 9 9 10 11 11 13 17 18 16 15
6 6 5 3 4 6 7 8 10 11 10 10 10 11 11 11 11 11 10 9 10 11 11 11 12 11 8 9 11 12 11 12 11 9 9 9 9 9 9 10 9 8 11 14
4 5 7 7 8 8 8 11 13 12 12 11 11 12 13 13 12 11 10 10 12 13 11 11 12 10 8 10 12 11 10 9 9 9 9 9 9 9 9 10 9 8 7 7
8 10 11 11 11 10 10 12 13 12 11 11 12 12 13 13 13 12 11 11 12 11 10 10 10 7 7 10 11 10 9 13 11 9 9 9 8 8 8 8 8 7 6 5
11 10 11 12 11 11 10 10 11 11 11 12 12 13 13 13 13 12 11 11 11 10 9 9 8 7 8 9 10 9 8 10 12 10 8 8 8 8 8 8 7 7 6 5
7 9 11 13 13 12 11 11 11 11 11 11 12 13 13 12 12 11 10 10 11 11 9 8 7 8 9 9 8 8 8 8 7 8 7 7 7 7 7 7 7 7 6 6
10 12 12 12 11 12 11 11 10 10 11 11 12 12 11 11 11 10 9 10 10 9 6 6 8 9 8 9 9 7 8 9 8 7 7 8 7 7 6 6 6 6 6 5
11 12 12 12 11 11 11 11 11 11 10 12 13 12 12 10 10 10 10 9 5 3 3 6 7 7 7 8 10 8 8 8 8 7 7 6 6 6 6 6 6 5 5 5
12 12 13 12 11 10 11 11 11 11 10 11 12 12 11 9 8 8 9 7 4 4 6 8 7 6 6 7 9 7 7 7 7 6 6 6 6 6 5 5 5 5 4 4
11 12 13 12 12 11 10 10 11 12 11 10 11 11 11 10 9 8 7 4 3 5 5 6 5 7 8 9 7 7 7 7 6 5 5 5 5 5 5 5 4 4 3 3
11 11 12 12 12 11 10 10 11 11 11 11 10 10 9 7 6 6 5 2 3 7 6 5 8 11 11 7 6 6 6 6 5 5 5 5 5 5 4 4 3 3 2 2
11 11 11 11 12 12 11 10 9 9 9 9 8 9 9 7 5 4 4 6 8 9 6 7 10 11 9 6 6 6 5 5 4 4 4 4 4 4 3 3 3 2 2 1
11 12 12 13 11 10 10 11 11 10 10 8 8 7 6 5 6 5 5 6 8 9 6 7 10 10 7 5 5 5 4 4 4 4 4 4 3 3 3 2 2 2 1 1
11 10 9 9 9 9 9 9 8 7 8 7 6 5 6 5 7 6 5 6 7 8 6 4 5 6 5 5 4 4 4 4 4 3 3 3 3 3 3 2 2 2 2 1
11 10 9 9 8 8 8 8 8 7 7 8 7 5 6 6 6 6 6 5 5 5 4 4 4 4 4 4 3 3 3 2 2 2 3 3 3 3 3 3 3 3 3 2
Wind_Direction
151 151 137 137 149 153 145 165 170 206 207 246 243 217 201 172 144 126 127 129 137 144 131 126 125 131 133 134 139 135 130 132 140 136 131 131 135 142 149 158 168 167 169 173
67 74 109 95 82 135 134 142 155 150 212 255 236 115 127 144 147 146 141 145 143 133 125 132 140 140 129 129 134 126 126 124 120 122 124 126 130 130 129 132 136 140 150 155
140 199 85 73 303 161 129 98 151 176 202 162 123 114 142 150 152 140 131 129 135 127 119 126 139 139 138 137 127 125 126 124 126 125 123 125 129 124 126 125 114 106 106 113
120 109 163 239 337 117 113 72 61 115 119 124 118 86 56 83 118 107 89 114 119 111 94 85 97 112 118 118 120 126 127 127 128 131 132 126 119 119 115 105 104 99 94 97
116 126 144 242 30 100 115 49 38 123 118 110 110 72 33 31 55 80 86 106 107 98 90 86 94 106 112 113 118 122 128 128 128 131 128 124 118 112 107 103 94 86 82 83
118 138 204 216 218 324 109 269 242 138 155 157 126 115 229 32 53 54 59 89 88 82 81 84 82 100 109 116 120 132 141 138 132 131 128 128 126 116 104 101 100 91 78 70
131 161 234 252 297 65 162 219 195 165 174 170 169 177 144 82 59 60 68 79 85 81 73 67 80 106 107 105 114 124 118 115 114 118 121 119 113 106 106 104 97 88 81 68
133 158 227 310 73 166 204 299 114 148 145 127 121 112 103 91 76 71 73 71 81 84 71 58 75 103 102 99 98 94 94 97 102 104 109 110 108 103 100 102 98 91 83 70
169 185 202 6 151 301 186 186 256 170 150 130 120 122 113 100 88 79 78 73 75 86 76 61 63 85 94 83 90 95 92 92 94 93 91 94 103 105 100 98 100 99 93 83
114 165 131 44 40 7 17 10 277 168 147 133 134 135 121 109 96 84 80 80 77 81 78 66 61 68 76 79 87 92 92 89 92 93 89 81 80 85 94 100 107 104 99 92
119 176 92 29 35 12 24 64 92 98 113 129 129 122 115 106 100 94 86 80 78 81 80 70 67 66 65 74 91 93 91 90 89 89 93 85 76 67 76 66 90 106 104 100
198 193 168 191 64 50 77 88 103 104 96 101 116 114 107 102 98 96 90 84 80 77 77 72 69 65 60 68 90 99 96 92 94 97 97 97 96 81 63 71 72 75 81 90
148 126 115 111 82 77 91 91 96 100 106 105 103 109 108 103 96 93 89 86 84 81 78 75 72 66 58 69 85 94 100 99 97 97 99 101 102 101 94 72 65 65 67 73
127 116 105 100 98 96 99 95 93 92 91 95 100 101 102 99 92 88 85 85 87 84 80 78 75 65 59 76 85 88 91 94 96 96 97 97 97 97 100 99 88 69 57 64
103 113 125 116 105 101 102 103 99 95 93 92 95 99 101 98 93 86 82 84 83 78 74 74 73 64 61 81 89 91 93 94 94 95 93 94 95 95 95 94 93 90 80 62
112 111 117 118 116 111 108 109 108 105 101 98 96 96 96 95 92 86 79 79 81 77 71 72 70 64 72 85 89 89 92 98 98 98 96 95 95 96 95 94 92 89 83 74
131 133 134 130 125 118 112 111 113 112 108 105 104 102 99 96 91 85 79 76 79 75 68 69 68 68 75 84 90 92 93 96 97 96 96 98 99 100 100 99 96 90 78 66
130 136 139 137 133 125 117 113 112 112 112 111 111 107 105 103 100 95 90 86 81 69 55 55 67 73 74 78 86 91 94 95 97 100 101 99 100 101 102 102 101 97 87 73
120 124 124 125 125 123 122 120 118 116 115 116 113 109 106 103 102 98 93 87 83 74 48 51 72 77 80 85 90 90 94 94 93 93 98 101 99 100 101 101 100 97 93 84
123 125 124 124 122 124 126 124 121 118 118 118 113 109 104 102 103 100 93 82 70 73 69 74 81 81 82 90 93 92 94 96 98 98 99 100 102 102 101 102 101 96 91 88
135 134 133 131 128 128 130 129 126 123 121 121 119 117 113 106 101 99 97 86 45 55 75 81 84 86 86 94 93 95 97 99 101 103 105 107 106 104 103 102 100 96 92 88
135 134 134 132 129 125 124 124 124 124 121 118 117 118 115 108 99 87 78 89 87 87 84 82 87 94 98 97 95 98 100 102 103 104 106 109 111 112 111 109 105 99 94 89
131 132 132 132 130 125 119 119 124 126 126 127 127 126 122 115 111 111 99 72 86 91 88 88 100 101 98 95 98 102 106 108 109 111 112 113 116 120 121 118 113 109 102 90
126 127 127 125 122 120 119 119 119 120 120 120 123 127 124 114 89 78 105 104 100 96 91 96 99 98 95 95 96 98 101 105 108 112 114 113 114 117 121 124 123 119 115 109
123 123 124 126 124 125 123 120 114 112 112 110 109 108 109 117 123 122 111 107 106 100 95 97 98 96 94 100 102 103 105 110 117 123 125 127 131 134 137 141 146 148 147 145
121 123 124 124 126 127 127 125 124 126 125 119 109 105 105 104 112 114 111 111 109 107 103 97 98 98 100 103 108 111 112 115 116 121 135 139 143 146 150 156 160 169 175 180
110 111 111 110 113 121 126 129 132 134 134 133 126 122 121 119 118 117 114 110 107 106 104 99 99 103 108 110 113 114 116 120 127 133 144 153 160 168 175 179 187 194 198 203
Height
1455 1452 1453 1457 1460 1462 1466 1472 1479 1476 1474 1469 1467 1467 1466 1467 1468 1469 1471 1472 1474 1476 1477 1478 1480 1481 1482 1483 1484 1486 1488 1489 1492 1494 1497 1500 1502 1505 1508 1511 1514 1516 1518 1521
1457 1454 1454 1460 1460 1461 1463 1466 1468 1470 1472 1466 1466 1466 1467 1467 1468 1469 1471 1473 1475 1476 1477 1479 1480 1482 1483 1484 1485 1486 1488 1490 1492 1494 1497 1499 1502 1504 1507 1509 1511 1513 1515 1517
1467 1459 1458 1470 1465 1464 1465 1465 1466 1470 1469 1466 1467 1467 1467 1468 1469 1471 1472 1474 1475 1476 1478 1479 1481 1482 1483 1485 1486 1487 1489 1490 1492 1495 1497 1499 1501 1503 1506 1508 1510 1512 1514 1516
1469 1465 1477 1472 1461 1461 1464 1466 1465 1465 1466 1467 1468 1468 1469 1469 1470 1471 1473 1474 1475 1476 1478 1479 1480 1482 1483 1485 1486 1488 1490 1491 1493 1495 1497 1500 1502 1503 1505 1507 1510 1511 1513 1515
1474 1476 1475 1467 1462 1463 1465 1469 1466 1466 1467 1468 1468 1469 1471 1471 1471 1472 1473 1474 1475 1476 1478 1479 1480 1481 1482 1484 1486 1488 1490 1491 1493 1495 1497 1499 1501 1503 1505 1508 1510 1511 1514 1515
1471 1476 1480 1468 1462 1461 1465 1471 1466 1466 1467 1468 1469 1473 1474 1472 1472 1472 1473 1474 1475 1476 1477 1479 1480 1481 1482 1484 1485 1487 1489 1492 1494 1496 1498 1499 1502 1504 1506 1508 1511 1513 1514 1516
1470 1472 1470 1463 1461 1462 1473 1470 1465 1465 1466 1467 1468 1470 1472 1472 1472 1473 1473 1474 1475 1477 1478 1478 1480 1481 1482 1484 1485 1488 1490 1492 1494 1496 1498 1500 1502 1504 1507 1509 1511 1513 1515 1516
1471 1473 1473 1462 1460 1464 1465 1462 1462 1463 1465 1466 1467 1469 1470 1471 1472 1473 1474 1475 1476 1476 1478 1479 1480 1481 1482 1484 1486 1489 1490 1492 1494 1496 1498 1501 1503 1505 1507 1509 1511 1513 1515 1516
1464 1467 1463 1461 1461 1462 1461 1461 1462 1462 1464 1465 1466 1468 1470 1472 1473 1473 1475 1476 1476 1477 1478 1480 1481 1482 1483 1486 1488 1489 1491 1493 1495 1497 1499 1502 1504 1506 1508 1510 1512 1513 1515 1516
1462 1461 1461 1461 1461 1461 1461 1461 1461 1462 1463 1465 1466 1468 1470 1471 1473 1474 1476 1477 1478 1479 1480 1481 1483 1484 1485 1487 1489 1491 1492 1494 1496 1498 1500 1502 1505 1507 1509 1511 1512 1514 1515 1517
1461 1461 1460 1461 1461 1461 1461 1461 1461 1462 1463 1465 1466 1468 1470 1472 1474 1476 1478 1479 1480 1481 1482 1483 1485 1486 1488 1489 1491 1492 1494 1496 1497 1499 1501 1503 1506 1509 1511 1513 1514 1516 1516 1518
1458 1457 1459 1461 1461 1461 1461 1461 1462 1462 1464 1466 1468 1469 1471 1474 1477 1478 1480 1481 1483 1484 1485 1486 1488 1489 1490 1492 1493 1494 1496 1498 1500 1501 1503 1505 1508 1510 1513 1514 1516 1517 1519 1520
1454 1456 1457 1459 1461 1461 1462 1462 1463 1464 1465 1467 1470 1471 1473 1476 1480 1482 1483 1485 1486 1487 1489 1490 1491 1492 1494 1495 1496 1497 1499 1501 1503 1505 1507 1509 1510 1512 1514 1517 1518 1520 1521 1522
1454 1456 1458 1460 1461 1462 1463 1464 1465 1466 1468 1470 1472 1474 1477 1480 1483 1485 1487 1488 1489 1491 1492 1494 1495 1496 1498 1499 1500 1501 1502 1504 1506 1508 1510 1512 1514 1515 1517 1518 1520 1522 1524 1525
1455 1456 1458 1460 1462 1464 1465 1466 1467 1470 1472 1474 1476 1478 1481 1483 1486 1489 1491 1492 1493 1494 1496 1497 1499 1500 1502 1503 1504 1505 1506 1508 1510 1512 1514 1516 1518 1519 1520 1522 1523 1525 1526 1527
1455 1457 1459 1461 1464 1466 1468 1469 1471 1474 1476 1478 1481 1483 1486 1488 1490 1493 1495 1496 1497 1499 1501 1502 1503 1505 1506 1508 1509 1510 1511 1513 1515 1516 1518 1520 1521 1523 1524 1525 1526 1528 1529 1529
1454 1457 1460 1463 1465 1468 1471 1473 1475 1477 1480 1483 1485 1488 1490 1492 1495 1497 1499 1501 1503 1504 1506 1507 1508 1510 1511 1512 1514 1515 1516 1518 1519 1521 1522 1524 1525 1526 1527 1528 1529 1530 1531 1532
1454 1457 1460 1463 1466 1470 1474 1477 1479 1482 1484 1487 1490 1492 1495 1497 1499 1502 1504 1506 1508 1509 1511 1512 1513 1515 1516 1517 1518 1519 1520 1522 1523 1524 1525 1527 1528 1529 1530 1531 1532 1532 1533 1534
1457 1460 1463 1467 1470 1473 1477 1480 1483 1486 1489 1492 1494 1497 1500 1502 1504 1507 1509 1511 1512 1513 1515 1517 1518 1519 1520 1521 1522 1523 1524 1525 1526 1527 1528 1530 1531 1532 1533 1533 1534 1535 1535 1536
1459 1463 1466 1470 1474 1477 1480 1484 1487 1490 1493 1496 1499 1501 1504 1507 1509 1511 1513 1514 1516 1517 1519 1521 1522 1523 1524 1525 1526 1527 1528 1528 1529 1530 1531 1532 1533 1534 1535 1535 1536 1537 1537 1537
1461 1465 1469 1473 1477 1481 1484 1488 1491 1494 1497 1500 1503 1505 1508 1511 1513 1515 1517 1518 1520 1522 1523 1524 1525 1526 1527 1528 1529 1530 1530 1531 1531 1532 1533 1534 1535 1536 1536 1537 1538 1538 1538 1538
1463 1467 1471 1475 1479 1483 1487 1491 1494 1497 1501 1504 1507 1509 1512 1514 1517 1519 1521 1522 1523 1525 1526 1527 1528 1529 1530 1531 1531 1532 1533 1533 1534 1535 1536 1536 1537 1538 1538 1539 1539 1539 1539 1538
1466 1470 1474 1478 1482 1486 1490 1494 1498 1501 1504 1507 1510 1513 1515 1518 1520 1521 1523 1525 1526 1527 1528 1530 1531 1532 1532 1533 1534 1534 1535 1535 1536 1537 1538 1538 1539 1539 1540 1540 1540 1540 1539 1539
1469 1473 1477 1482 1486 1489 1493 1498 1501 1505 1508 1511 1514 1516 1518 1520 1522 1524 1526 1527 1528 1530 1531 1532 1533 1534 1534 1535 1536 1536 1537 1537 1538 1539 1539 1540 1540 1540 1540 1540 1540 1540 1540 1539
1472 1476 1480 1485 1489 1493 1497 1500 1504 1508 1511 1514 1516 1519 1521 1523 1525 1526 1528 1529 1531 1532 1533 1534 1535 1536 1536 1537 1538 1538 1539 1539 1540 1540 1540 1540 1541 1541 1541 1541 1541 1540 1540 1539
1476 1480 1484 1488 1492 1496 1500 1503 1506 1510 1513 1516 1518 1521 1523 1525 1527 1529 1530 1532 1533 1534 1535 1536 1537 1537 1538 1538 1539 1540 1540 1540 1540 1541 1541 1541 1541 1541 1541 1541 1541 1540 1540 1539
1480 1484 1488 1492 1496 1500 1503 1506 1509 1512 1515 1518 1520 1523 1525 1527 1529 1530 1532 1533 1534 1535 1537 1537 1538 1539 1539 1540 1540 1541 1541 1541 1541 1541 1541 1541 1541 1541 1541 1541 1540 1540 1539 1538